Theta_e
321 316 313 312 321 325 330 331 327 328 330 330 333 338 336 340 344 352 352 355 357 356 356 354 354 354 354 353 352 353 354 353
316 313 319 321 319 328 329 332 331 330 329 337 341 338 340 341 347 349 350 355 356 357 355 353 354 353 353 353 353 353 353 353
314 315 317 320 327 330 326 326 328 327 327 334 341 343 341 342 347 346 350 353 355 356 354 353 354 353 353 353 353 353 354 353
310 314 317 320 326 328 327 326 328 327 327 335 341 338 340 344 345 346 351 351 354 356 356 355 354 353 354 355 355 354 354 354
313 314 315 319 327 327 325 325 327 329 325 336 337 340 341 343 345 346 351 351 351 351 355 354 355 354 354 354 354 354 353 354
313 313 313 323 324 329 328 326 331 331 324 331 340 342 341 341 343 344 348 350 349 350 349 349 352 354 354 354 354 353 354 354
312 313 315 321 322 330 332 328 329 331 330 339 345 342 338 336 339 341 343 348 348 346 347 346 346 352 354 354 354 354 353 354
318 318 317 317 320 329 328 325 325 330 336 345 344 340 334 333 335 338 339 344 346 346 346 345 346 351 349 349 350 350 349 352
319 318 319 318 322 330 325 322 327 325 335 342 342 338 335 333 334 336 339 342 345 347 349 345 345 349 347 347 347 349 351 354
320 320 318 318 320 324 327 325 330 330 338 341 339 336 334 333 333 335 338 341 344 348 351 349 345 347 347 346 347 348 350 354
320 320 319 320 318 320 322 328 331 330 338 339 337 335 334 335 335 337 337 340 343 348 353 352 350 347 347 346 347 348 350 352
319 319 320 317 319 317 319 322 324 328 332 337 334 334 335 335 336 338 340 341 343 347 355 353 354 353 348 349 348 348 348 348
316 317 317 319 315 315 320 322 323 327 329 333 334 333 334 336 339 341 343 345 345 348 354 356 354 353 351 348 346 348 349 352
312 314 317 317 309 318 321 320 321 324 326 328 332 332 335 338 341 344 346 350 350 347 350 355 355 353 348 347 346 349 351 351
306 314 315 315 310 317 322 320 319 321 324 326 329 334 335 339 342 344 349 350 354 354 349 353 358 352 353 357 349 350 353 352
305 310 312 310 311 316 319 320 319 319 320 322 327 330 337 339 342 347 349 355 358 356 362 361 355 354 349 346 348 349 352 353
307 310 308 308 310 313 317 318 318 318 320 321 322 329 333 340 344 349 355 357 358 359 363 358 352 348 346 344 347 346 350 357
307 309 308 308 307 311 314 316 318 318 319 320 322 324 327 337 346 352 357 360 362 361 365 362 356 356 351 349 348 351 355 360
304 307 309 307 305 308 312 314 316 318 320 321 322 322 325 328 343 350 355 360 359 364 365 363 361 359 358 354 354 351 355 357
306 304 299 309 299 308 311 311 313 315 316 318 321 322 324 326 333 347 351 354 360 364 367 365 367 357 358 347 346 352 354 355
Wind_Speed
12 6 8 11 15 18 13 9 7 8 3 7 8 5 13 18 18 21 17 17 17 15 13 14 14 13 12 12 12 12 12 12
12 2 11 9 27 18 14 9 3 7 13 10 8 9 10 17 19 18 18 19 18 16 14 14 14 13 13 13 12 12 12 11
13 12 6 5 8 6 16 7 7 4 15 9 5 11 17 18 17 17 18 19 17 16 16 15 15 14 14 13 12 12 11 11
14 13 8 2 2 3 10 9 7 3 10 12 12 16 17 17 17 16 18 17 17 15 15 14 15 14 14 12 12 12 11 9
19 4 1 4 2 7 6 6 11 0 9 12 15 15 17 16 15 16 18 18 16 15 14 14 14 13 13 12 11 11 10 9
7 12 2 8 4 6 2 16 6 4 7 13 17 16 15 16 16 16 17 18 17 16 16 14 13 13 13 12 11 10 9 9
15 10 2 6 10 3 2 7 5 4 7 16 19 17 16 16 16 15 14 17 17 17 16 15 15 13 12 11 11 10 9 9
4 6 9 4 10 17 7 7 8 10 8 18 19 17 17 16 15 17 16 17 16 16 16 15 12 14 12 11 10 10 10 11
6 2 6 11 9 9 13 15 11 17 15 17 19 17 17 17 16 17 17 14 16 12 12 13 12 10 8 8 8 8 10 9
6 5 9 11 7 5 11 12 6 8 20 18 18 18 17 17 16 16 16 15 14 14 12 10 8 9 9 8 8 7 8 9
13 8 12 9 11 11 10 13 6 6 18 17 17 17 15 14 14 13 15 15 14 15 12 10 8 8 7 7 7 8 7 9
14 15 15 14 14 8 15 12 5 7 17 17 18 18 16 16 15 14 14 16 15 16 14 13 10 8 7 7 7 6 7 7
19 16 16 13 16 15 16 6 11 11 13 17 17 18 18 18 16 16 14 15 15 15 16 14 13 10 8 8 8 8 7 8
20 24 22 18 15 20 16 12 13 15 15 16 19 19 19 18 17 18 16 15 16 15 18 15 13 11 9 8 8 8 7 7
17 20 21 20 18 20 17 18 14 14 14 14 16 18 18 20 19 18 17 17 16 15 17 17 13 11 11 10 8 8 7 7
10 13 10 15 18 19 20 14 12 16 16 15 18 19 19 20 20 20 18 16 16 14 13 16 12 10 10 9 10 9 8 7
13 5 1 13 16 20 23 24 15 15 19 18 17 17 20 21 19 18 18 17 18 17 16 13 13 13 11 11 10 10 8 9
13 12 8 13 18 18 19 19 20 18 19 20 19 19 18 21 21 18 18 19 17 18 17 15 12 10 10 10 11 9 8 8
14 11 12 15 18 19 19 20 21 22 22 21 21 20 19 20 22 20 18 18 18 17 17 17 15 10 8 9 7 10 8 6
10 13 13 14 11 13 15 20 22 22 22 18 19 21 19 19 20 23 21 18 18 17 17 17 16 14 14 12 12 10 9 10
Wind_Direction
240 263 110 275 111 105 109 118 138 129 328 22 66 96 144 118 138 122 137 132 123 142 145 149 148 147 146 143 144 142 137 136
256 7 150 146 297 105 117 103 117 349 101 102 38 133 112 151 138 144 142 123 136 141 147 152 153 152 149 150 149 142 142 141
249 270 108 354 18 14 102 89 83 340 91 74 94 109 136 144 144 151 133 123 141 145 151 156 160 155 153 153 150 148 146 146
258 228 110 25 43 281 108 75 63 143 106 88 131 136 143 151 159 145 127 142 136 149 154 158 160 159 157 155 154 151 152 150
274 26 354 121 344 232 139 106 87 269 94 115 148 139 150 159 157 145 136 138 150 154 157 161 161 160 161 158 157 154 158 155
276 275 144 84 230 239 240 88 113 290 81 157 135 150 158 162 163 152 154 144 154 154 161 166 161 166 164 163 163 161 164 168
229 236 341 109 235 147 29 108 135 88 63 118 140 160 170 167 165 163 168 153 162 165 164 174 158 160 168 170 168 170 176 186
349 55 341 1 269 156 199 202 157 125 116 125 156 170 175 174 174 171 176 163 163 171 164 173 152 150 180 173 184 191 189 176
123 240 321 306 230 184 197 190 200 167 152 154 166 179 183 184 182 178 175 172 164 172 163 172 166 164 182 174 185 192 196 191
309 109 245 280 349 234 238 235 125 145 148 162 176 183 189 188 181 179 172 172 170 168 172 198 173 177 183 188 186 190 194 193
259 252 253 279 257 252 220 241 106 187 147 171 184 185 189 182 172 176 174 172 182 168 178 196 205 183 196 205 191 191 177 187
241 242 238 243 254 182 237 223 183 203 166 180 189 184 185 183 174 182 185 172 184 175 174 193 201 199 197 192 179 217 192 202
257 252 250 249 245 256 247 166 182 192 187 183 194 186 192 187 182 184 186 176 186 186 174 198 193 203 208 189 216 198 210 193
229 222 233 243 257 228 222 194 223 193 192 196 187 199 196 192 188 182 185 186 189 190 176 188 189 194 204 206 207 203 201 189
246 216 219 219 233 257 229 210 220 240 201 208 203 202 205 196 191 191 191 186 189 193 185 181 195 197 209 196 214 208 204 199
262 224 212 265 255 241 258 226 215 238 250 232 205 207 204 208 198 191 191 187 192 191 201 175 183 206 198 200 199 214 207 208
306 254 332 281 275 250 238 256 215 234 241 243 247 218 201 200 211 194 191 193 191 193 189 182 193 195 199 203 199 208 205 208
260 263 284 271 265 256 266 261 261 253 244 250 242 238 242 195 191 202 191 195 194 195 189 193 196 199 203 200 195 203 191 184
283 298 220 267 266 261 259 255 254 249 253 255 256 251 233 239 189 189 200 195 203 201 195 196 201 195 202 201 198 198 180 175
276 259 259 241 287 268 249 227 231 243 246 254 249 255 263 245 226 185 195 199 200 205 205 197 203 193 197 200 192 193 189 180